Location: Sobotiste
(48.7170°N, 17.4000°E)
Time: 12:08:42
(UTC+01:00)

KKS-1 - Visible Passes

Search period start: 15 March 2026 00:00
Search period end: 25 March 2026 00:00
Orbit: 616 x 625 km, 98.1° (Epoch: 14 March)

Date Brightness Start Highest point End Pass type
(mag) Time Alt. Az. Time Alt. Az. Time Alt. Az.
20 Mar ? 01:18:30 10° N 01:18:34 10° N 01:18:34 10° N visible
21 Mar ? 01:36:07 10° N 01:36:11 10° N 01:36:11 10° N visible
23 Mar ? 00:34:04 10° NNE 00:34:15 11° NNE 00:34:15 11° NNE visible
24 Mar ? 00:51:25 10° N 00:51:51 13° N 00:51:51 13° N visible
